Location: Memphis International Airport Police
(35.0443°N, 89.9815°W)
Time: 01:35:43
(UTC+00:00)

Meteor 1-11 Rocket - Pass Details

Date: 26 September 2023
Orbit: 830 x 915 km, 81.2° (Epoch: 30 November)

Event Time Altitude Azimuth Distance (km) Brightness Sun altitude
Rises 10:56:17 0° 352° (N) 3,500 6.9 -12.0°
Reaches altitude 10° 10:58:44 10° 353° (N) 2,569 6.2 -11.5°
Maximum altitude 11:04:37 84° 82° (E) 914 4.0 -10.3°
Drops below altitude 10° 11:10:33 10° 171° (S) 2,592 6.3 -9.1°
Sets 11:13:01 0° 172° (S) 3,533 7.0 -8.6°
